RH
1 1 1 1 10 18 30 48 50 52 54 51 52 56 57 58 57 54 48 31 15 4 43 100 97 100 99 99 86 97 92 85 75 85 100 63 30 16 10 6 6 6 18
2 2 1 3 13 21 44 55 61 61 63 65 60 64 67 73 72 70 58 40 28 7 9 90 99 99 100 99 85 89 86 59 73 81 98 63 33 17 12 6 7 6 11
2 2 2 5 13 26 57 64 69 67 73 84 79 81 85 82 86 80 66 46 35 11 10 90 100 100 98 100 86 82 100 80 74 71 96 73 46 30 19 9 7 6 6
2 2 2 6 16 33 64 71 75 77 87 88 93 90 86 84 95 84 60 41 25 14 16 90 95 99 99 99 79 98 89 78 84 86 100 76 44 38 26 14 7 6 6
3 2 2 5 14 42 71 81 85 82 90 94 94 99 98 93 93 61 52 31 12 12 11 95 98 99 100 99 85 83 80 98 96 93 100 76 47 45 38 22 11 8 6
4 3 2 4 12 46 78 87 85 86 88 92 95 95 96 97 99 98 100 71 17 3 18 98 100 93 94 71 79 80 100 100 92 98 100 67 34 42 52 28 19 14 7
6 3 2 3 9 38 79 90 92 93 95 96 96 99 98 96 95 82 82 26 8 29 89 96 98 100 100 94 98 100 99 100 92 98 92 36 28 36 52 36 25 20 13
10 4 3 2 5 19 70 90 95 95 96 96 96 96 97 96 97 94 26 4 11 54 92 86 94 90 99 98 100 96 98 98 100 98 98 91 35 24 38 39 32 28 30
14 6 4 3 3 8 46 88 93 96 96 96 97 96 98 98 100 71 12 70 93 98 98 96 99 100 100 99 98 99 91 100 100 100 99 74 57 45 54 58 38 30 28
22 10 6 4 2 4 14 64 86 84 96 96 96 96 97 99 97 69 93 96 98 99 100 99 92 94 97 100 100 100 96 100 100 99 99 100 79 50 44 53 51 40 24
32 15 8 5 3 3 7 24 76 82 87 96 96 96 98 99 84 96 98 98 99 99 99 100 100 100 100 100 100 99 98 100 100 100 99 100 96 66 71 57 49 36 18
41 20 10 6 4 3 3 6 31 70 79 92 96 100 97 98 98 94 98 98 99 98 99 100 99 99 100 100 100 100 100 100 100 100 100 100 97 76 87 90 64 34 23
48 29 10 7 5 4 3 3 6 35 62 73 90 92 93 97 100 93 98 98 99 99 99 92 95 97 99 100 99 100 100 100 100 99 100 99 100 98 99 100 93 100 85
52 38 17 7 6 5 4 2 3 8 34 54 62 76 91 95 95 96 98 98 98 98 99 99 92 92 99 96 99 99 100 99 99 99 99 100 100 100 96 99 100 90 99
58 43 27 9 5 6 4 3 2 3 9 26 33 48 57 76 82 81 92 96 97 98 100 99 98 98 95 99 99 99 99 95 89 98 99 99 99 99 99 100 100 100 96
66 47 36 15 6 5 5 5 4 3 2 4 13 23 32 36 48 59 74 76 78 83 97 98 100 100 94 99 99 99 98 96 96 98 97 99 99 100 99 100 99 100 100
74 51 40 22 8 6 5 4 4 4 3 3 2 3 8 18 19 24 38 48 59 61 70 69 93 97 98 98 99 99 100 98 100 95 98 99 99 99 99 99 99 100 100
84 57 43 30 10 6 6 5 4 4 4 4 3 3 2 2 8 13 15 20 17 27 45 54 59 64 70 94 97 98 98 99 99 99 99 99 98 99 99 99 99 99 99
92 64 46 36 14 6 5 5 5 4 4 4 4 4 3 3 2 2 3 4 7 8 12 21 36 46 60 73 85 97 96 98 98 98 99 98 98 98 98 99 99 98 99
94 67 47 37 16 6 5 5 5 5 5 5 5 5 5 4 4 4 3 3 2 3 3 3 5 15 26 37 50 66 81 95 96 98 98 98 100 99 99 99 99 97 97
93 60 47 34 13 6 5 5 5 5 5 5 6 6 6 6 5 5 4 4 4 3 3 3 3 3 3 5 11 21 38 52 79 82 75 76 86 81 89 97 98 99 99
75 51 44 24 9 6 6 6 6 6 6 6 6 6 6 6 6 6 6 6 5 5 5 5 4 4 4 3 3 2 3 6 17 32 47 61 65 65 70 69 75 94 98
52 46 30 13 7 7 7 8 8 9 9 9 9 9 8 8 8 8 8 8 8 8 7 7 6 6 5 5 5 4 4 3 3 2 3 8 20 37 52 58 62 67 71
48 29 14 9 8 9 10 11 12 12 12 12 12 12 12 12 12 11 11 11 10 10 11 11 10 9 9 8 7 6 6 5 4 4 3 3 3 2 4 11 24 41 53
28 14 10 11 12 13 14 15 16 16 16 16 17 17 18 18 17 17 17 16 15 15 14 14 13 13 12 11 10 10 9 8 7 6 5 5 4 4 3 3 3 4 9
14 13 15 17 18 20 21 21 22 24 25 27 29 29 29 28 26 24 22 21 19 18 17 18 19 19 18 16 15 15 14 14 12 10 8 7 6 6 5 5 4 5 7
Wind_Speed
33 34 35 30 29 32 38 40 43 45 49 51 51 51 51 51 53 58 60 63 74 83 108 95 80 61 61 80 68 67 56 59 54 47 42 41 40 42 43 42 41 40 36
32 33 32 27 28 32 36 40 40 46 51 52 51 51 49 50 50 55 58 64 71 82 99 109 93 67 55 72 71 63 59 46 54 48 45 43 46 45 46 47 45 42 41
32 32 29 25 28 31 33 38 40 47 47 47 44 47 47 46 47 50 54 59 66 74 101 112 97 78 69 73 75 67 63 54 53 50 51 48 44 43 45 50 49 46 43
31 30 26 23 27 29 32 36 40 44 42 41 38 38 40 40 41 45 48 54 58 69 71 98 88 55 67 84 75 68 62 59 54 49 49 50 49 44 44 50 52 48 46
30 29 26 22 25 27 30 32 40 40 37 32 32 28 29 34 29 36 43 45 55 63 68 103 71 53 52 72 79 65 64 65 64 57 53 53 53 51 51 48 49 50 48
29 27 25 21 22 25 27 28 36 33 30 28 26 26 30 30 28 33 37 39 46 73 85 77 61 55 69 67 61 66 61 61 59 60 57 57 57 53 48 48 46 50 52
28 27 25 21 19 22 25 24 30 30 23 25 25 24 32 35 32 23 21 28 44 74 72 72 52 56 71 72 63 49 48 52 56 56 51 54 55 54 49 48 48 47 47
27 26 24 22 19 20 23 24 23 27 22 21 21 21 23 31 26 19 19 31 56 70 50 71 57 57 67 70 51 51 54 46 51 45 48 45 46 49 49 48 45 41 41
25 25 23 22 19 19 21 21 18 23 22 20 21 18 13 13 5 15 27 48 54 47 45 62 59 73 57 54 53 52 48 51 45 51 47 44 44 43 44 46 48 48 48
23 23 23 22 20 17 18 19 16 16 22 19 18 18 13 13 12 32 44 17 30 45 47 55 45 50 52 50 48 44 45 52 49 46 51 45 45 45 45 49 50 52 50
22 22 21 22 20 17 16 19 16 17 17 17 17 19 18 10 18 19 14 28 29 38 40 40 42 49 49 50 45 47 39 38 45 48 52 48 48 50 49 51 52 52 51
21 21 21 20 20 17 15 15 15 14 14 16 14 15 18 18 11 7 14 22 23 24 22 31 33 31 29 34 37 40 43 33 39 44 51 50 50 52 51 47 50 46 47
19 21 20 20 20 18 15 14 13 13 14 11 10 11 17 16 9 9 8 13 26 28 23 20 21 21 22 28 25 35 34 39 40 35 40 52 51 53 50 48 47 42 44
17 20 22 21 20 18 14 11 13 12 12 14 9 6 8 7 7 14 11 10 11 17 21 26 20 21 20 25 25 17 28 27 32 33 32 38 49 43 51 53 51 46 49
16 18 20 21 21 20 17 12 7 9 11 10 12 7 7 5 5 5 2 4 5 10 14 15 23 15 18 18 25 24 27 20 22 27 29 35 51 43 37 53 57 52 48
15 16 19 20 21 21 18 16 14 10 6 10 11 13 11 10 8 7 3 2 4 6 4 4 10 17 20 27 24 31 25 20 22 29 29 35 36 32 33 46 49 48 51
13 14 17 19 20 20 20 19 14 12 11 7 6 10 12 13 11 9 9 6 6 8 9 11 14 8 10 16 23 31 31 31 30 34 37 38 35 41 35 35 35 44 42
12 13 15 17 18 19 18 16 16 16 13 10 9 6 8 13 17 16 13 13 7 7 10 12 12 15 19 19 15 18 24 28 30 30 33 36 37 38 37 36 42 44 33
11 12 14 16 17 17 16 16 13 12 13 14 14 10 7 7 8 12 15 14 14 11 9 11 12 14 16 19 23 22 21 21 22 22 30 28 32 37 39 40 30 29 38
12 12 13 15 16 17 15 14 13 12 11 10 11 12 12 10 8 8 8 9 9 10 8 9 13 17 19 19 20 21 24 28 29 29 32 31 35 39 39 39 42 42 42
12 13 14 15 16 16 15 14 12 11 11 10 9 10 10 10 10 9 8 7 7 9 10 11 8 12 16 20 22 22 24 25 26 31 32 34 38 42 45 42 43 46 46
12 13 14 16 16 15 14 13 13 12 11 11 11 11 11 11 11 10 10 9 8 7 7 8 10 11 11 13 17 20 22 26 28 30 31 32 35 38 40 42 46 50 49
13 14 15 15 15 13 12 12 12 11 11 11 10 10 10 11 12 12 12 11 10 9 9 10 10 11 12 13 13 15 18 20 24 26 31 33 35 37 38 40 41 42 45
14 15 15 14 13 12 11 10 9 9 9 9 9 9 10 10 10 10 12 13 14 14 12 11 11 12 14 15 16 16 16 17 20 22 26 29 31 34 37 40 41 44 43
15 14 13 12 11 10 9 8 8 7 7 7 8 8 9 10 10 10 10 11 12 14 16 18 18 17 17 17 17 17 18 19 18 19 23 24 26 28 31 34 36 38 42
13 12 10 9 8 8 8 7 7 7 7 7 8 8 9 9 10 10 10 11 12 13 14 15 17 19 21 22 22 22 21 20 21 20 22 23 23 25 26 28 30 32 34
Wind_Direction
313 315 311 301 295 295 299 300 300 297 295 293 287 281 276 267 260 255 247 240 234 224 215 208 197 193 199 218 220 218 233 228 242 231 233 236 234 226 221 221 221 222 222
317 318 311 304 299 301 304 305 300 306 301 294 286 280 277 269 262 251 243 237 237 227 220 218 212 205 198 215 219 221 225 235 233 228 230 229 227 223 219 217 220 220 222
319 320 315 306 304 305 308 309 305 310 304 294 287 279 270 268 261 250 243 239 240 230 217 209 214 215 208 214 220 219 218 224 225 229 233 228 226 226 221 217 217 219 221
321 323 319 309 305 311 314 313 315 314 302 295 288 281 271 267 257 247 242 243 239 230 229 206 195 191 199 212 213 217 216 223 224 223 224 226 226 224 221 219 218 217 220
324 325 324 312 308 317 317 319 325 314 309 310 296 274 266 257 253 248 238 237 229 228 224 209 202 204 195 210 210 219 221 220 222 231 228 223 222 220 219 218 217 219 220
326 329 328 315 311 317 321 323 328 315 313 314 300 289 279 261 242 241 238 236 231 218 207 205 195 198 204 211 213 219 222 217 226 225 227 222 223 221 220 219 219 222 222
327 332 331 319 314 318 322 321 330 324 323 312 301 270 263 268 260 256 256 241 222 200 199 207 213 203 200 210 208 214 218 221 225 224 220 222 226 225 223 220 221 224 226
327 330 334 327 317 316 319 318 325 324 327 326 318 289 267 258 266 262 244 207 202 199 205 209 202 208 204 213 206 207 211 214 221 225 224 228 231 233 231 229 229 231 230
325 332 338 331 318 313 317 320 317 325 331 340 336 334 288 279 259 213 183 187 191 224 213 191 200 196 197 203 204 206 222 221 219 230 223 220 222 222 227 230 229 229 230
326 333 339 336 325 314 313 317 322 318 330 343 353 353 42 92 196 195 182 253 179 195 178 192 200 200 204 207 204 214 219 222 219 230 218 215 221 224 223 227 230 233 233
323 331 340 338 333 319 313 317 324 320 326 335 7 11 41 135 222 217 270 202 174 163 178 172 175 187 195 204 210 208 214 231 227 222 214 223 221 225 223 227 230 234 236
319 328 338 342 338 331 315 313 319 322 323 325 350 26 20 97 145 228 220 208 196 203 162 171 173 180 171 180 188 202 211 228 217 227 221 228 222 227 228 228 234 234 237
316 324 335 343 343 341 332 316 317 319 322 328 332 3 15 45 116 221 127 161 183 191 198 222 215 206 209 181 190 194 203 214 218 220 235 225 233 228 229 231 235 234 240
311 322 331 339 343 346 347 334 315 313 313 318 337 334 11 15 73 82 67 139 145 166 185 193 207 205 210 220 204 217 205 220 221 231 227 230 230 233 224 231 228 243 233
307 317 328 335 339 344 349 352 341 303 299 305 318 336 344 340 347 57 39 53 86 167 189 194 198 203 210 203 211 230 232 239 261 229 235 221 227 229 229 226 229 230 242
302 312 323 331 336 338 346 351 352 348 320 293 294 304 314 329 333 349 336 197 241 262 277 146 180 212 216 207 211 210 215 229 242 236 233 218 223 211 218 218 219 223 227
297 304 317 326 332 335 338 341 350 351 342 342 301 295 294 292 298 298 300 310 255 252 235 247 259 241 196 188 192 212 223 222 225 235 238 240 224 212 219 216 216 214 218
292 297 308 318 324 328 332 336 337 340 343 344 344 335 303 294 289 288 285 283 270 239 239 240 229 232 254 256 230 203 211 214 218 220 224 227 224 224 230 238 234 238 237
286 291 300 311 317 320 323 326 329 329 330 332 339 346 343 320 295 288 290 287 285 287 264 250 240 238 234 228 240 239 235 230 221 226 225 222 235 233 231 231 234 246 242
280 286 294 304 310 311 312 313 316 318 320 322 325 329 336 343 337 324 312 298 287 281 271 247 240 239 240 241 241 239 238 240 244 235 233 232 231 235 239 239 236 231 240
278 282 292 300 304 303 303 302 300 300 304 308 314 318 323 325 327 330 331 326 313 294 287 286 264 238 239 244 244 242 243 243 237 233 236 236 240 245 247 245 243 245 243
272 280 290 298 300 299 297 294 295 299 301 303 308 311 316 323 326 328 329 327 318 311 303 295 293 288 275 255 250 249 247 244 246 246 245 245 240 239 242 242 245 247 250
275 283 291 293 293 292 288 288 291 294 297 302 308 313 316 317 321 324 326 327 327 322 314 307 300 293 284 279 273 265 258 256 256 253 251 251 248 247 247 248 247 245 245
282 288 289 286 282 279 278 277 278 281 288 297 303 308 312 315 318 318 319 318 317 316 313 308 302 298 295 293 289 284 276 268 265 262 257 257 256 256 254 253 252 252 252
282 282 281 277 273 270 269 272 274 278 284 293 300 305 309 311 312 311 309 307 307 307 308 308 307 303 297 293 291 290 290 291 284 275 272 268 265 264 263 261 260 260 258
279 275 268 265 264 267 270 275 281 288 293 296 298 300 303 307 309 311 312 311 307 302 297 296 297 298 298 296 294 292 287 283 282 281 280 277 275 273 271 268 266 266 264